Weather reports worldwide

Advertisment
Arkona, Germany (10091): temperature & dewpoint: 23.10.2020 11:00:00 - 29.10.2020 11:00:00 (CET)Arkona, Germany (10091): temperature 5cm & temperature -5cm: 23.10.2020 11:00:00 - 29.10.2020 11:00:00 (CET)Arkona, Germany (10091): temperature -20cm & temperature -100cm: 23.10.2020 11:00:00 - 29.10.2020 11:00:00 (CET)Arkona, Germany (10091): wind speed & gusts: 23.10.2020 11:00:00 - 29.10.2020 11:00:00 (CET)Arkona, Germany (10091): wind direction: 23.10.2020 11:00:00 - 29.10.2020 11:00:00 (CET)Arkona, Germany (10091): reduced air pressure: 23.10.2020 11:00:00 - 29.10.2020 11:00:00 (CET)Arkona, Germany (10091): visibility: 23.10.2020 11:00:00 - 29.10.2020 11:00:00 (CET)Arkona, Germany (10091): sunshine duration: 23.10.2020 11:00:00 - 29.10.2020 11:00:00 (CET)Arkona, Germany (10091): precipitation: 23.10.2020 11:00:00 - 29.10.2020 11:00:00 (CET)
Date & Time tt [°C] td [°C] tt 5cm [°C] tt -5cm [°C] tt -20cm [°C] tt -100cm [°C] ff [km/h] ff [kn] fx [km/h] fx [kn] dd ppp [hPa] vv [km] sd [min] rr [mm]
29.10.2020 11:00:00 10,1 7,4 10,3 10,0 9,4 12,3 37 20 54 29 WSW 1005,9 48 9 0,2
29.10.2020 10:00:00 8,9 8,1 8,7 9,1 9,4 12,3 32 17 42 23 SW 1005,3 14 0 0,5
29.10.2020 09:00:00 8,9 8,2 8,7 8,8 9,4 12,3 29 16 35 19 SW 1004,8 18 0 0,3
29.10.2020 08:00:00 9,0 8,4 8,7 8,6 9,3 12,3 25 13 37 20 SSW 1004,4 4,3 0 0,2
29.10.2020 07:00:00 8,9 8,2 8,5 8,5 9,3 12,3 29 15 38 21 SSW 1004,2 17 0 0,6
29.10.2020 06:00:00 8,9 8,0 8,4 8,4 9,3 12,3 29 16 41 22 SSW 1004,5 9 0 0,9
29.10.2020 05:00:00 9,8 7,4 9,4 8,2 9,3 12,3 28 15 40 21 SSW 1004,6 49 0 0,0
29.10.2020 04:00:00 9,4 7,4 8,7 7,7 9,4 12,3 26 14 37 20 SSW 1004,8 53 0 0,0
29.10.2020 03:00:00 9,2 7,3 8,5 7,7 9,5 12,3 24 13 38 20 SSW 1005,4 46 0 0,0
29.10.2020 02:00:00 9,2 7,1 8,2 7,9 9,6 12,3 28 15 41 22 SSW 1006,0 47 0 0,0
29.10.2020 01:00:00 10,1 7,9 9,4 8,3 9,7 12,3 32 17 41 22 S 1006,3 56 0 0,0
29.10.2020 00:00:00 9,8 7,2 8,9 8,0 9,8 12,3 27 15 36 20 SSW 1006,8 44 0 0,0
28.10.2020 23:00:00 9,3 7,1 8,1 8,1 10,0 12,3 26 14 36 19 SSW 1007,1 48 0 0,0
28.10.2020 22:00:00 9,7 7,2 8,9 8,6 10,1 12,3 30 16 39 21 SSW 1007,3 46 0 0,0
28.10.2020 21:00:00 9,6 7,4 9,0 8,5 10,3 12,3 28 15 37 20 SSW 1007,5 43 0 0,0
28.10.2020 20:00:00 9,8 7,5 8,7 8,7 10,4 12,3 29 16 38 20 SSW 1007,5 50 0 0,0
28.10.2020 19:00:00 10,9 7,9 9,7 9,3 10,6 12,4 26 14 38 20 SSW 1007,4 49 0 0,0
28.10.2020 18:00:00 11,1 8,4 10,0 9,8 10,7 12,4 23 12 31 17 SSW 1007,5 40 0 0,0
28.10.2020 17:00:00 11,5 8,3 10,9 10,4 10,7 12,4 21 11 28 15 SSW 1007,2 41 5 0,0
28.10.2020 16:00:00 11,6 8,8 10,6 11,5 10,7 12,4 23 13 33 18 SSW 1007,3 38 24 0,0
28.10.2020 15:00:00 13,0 8,7 13,8 12,4 10,4 12,4 23 13 32 17 SSW 1006,9 36 60 0,0
28.10.2020 14:00:00 12,7 8,6 13,7 12,2 10,1 12,4 26 14 38 20 SSW 1006,5 43 35 0,0
28.10.2020 13:00:00 12,3 8,5 12,6 12,3 9,7 12,4 29 15 42 23 SW 1006,5 42 44 0,0
28.10.2020 12:00:00 12,3 8,7 13,4 11,2 9,4 12,4 28 15 37 20 SW 1006,3 75 26 0,0
28.10.2020 11:00:00 10,2 8,5 10,3 9,6 9,3 12,4 25 14 42 23 SW 1006,1 39 1 0,0
28.10.2020 10:00:00 9,5 8,1 9,5 9,0 9,2 12,4 34 18 49 26 SW 1005,6 38 0 0,0
28.10.2020 09:00:00 9,0 8,0 8,8 8,6 9,1 12,4 35 19 50 27 SW 1004,7 29 0 0,0
28.10.2020 08:00:00 8,5 7,8 8,3 8,2 9,1 12,4 41 22 51 28 SSW 1004,2 20 0 0,1
28.10.2020 07:00:00 8,2 7,4 7,9 8,0 9,1 12,4 39 21 49 27 SSW 1003,8 5 0 0,0
28.10.2020 06:00:00 8,3 6,8 7,6 7,8 9,1 12,4 44 24 58 32 SSW 1003,6 3,3 0 0,0
28.10.2020 05:00:00 9,1 5,7 8,8 7,7 9,1 12,4 39 21 52 28 SSW 1003,5 58 0 0,0
28.10.2020 04:00:00 9,1 5,7 8,6 7,4 9,2 12,4 35 19 50 27 S 1003,8 49 0 0,0
28.10.2020 03:00:00 9,1 5,7 8,4 7,3 9,3 12,4 35 19 50 27 SSW 1004,5 57 0 0,0
28.10.2020 02:00:00 8,7 5,9 7,9 7,3 9,4 12,4 35 19 45 24 SSW 1004,9 58 0 0,0
28.10.2020 01:00:00 8,8 6,1 7,8 7,4 9,5 12,5 31 17 43 23 SSW 1005,3 50 0 0,0
28.10.2020 00:00:00 9,2 6,5 8,3 7,8 9,6 12,5 34 18 44 24 SSW 1005,4 58 0 0,0
27.10.2020 23:00:00 9,1 6,4 8,5 7,8 9,7 12,5 36 19 44 24 SSW 1005,8 50 0 0,0
27.10.2020 22:00:00 9,1 6,5 8,0 7,7 9,9 12,5 31 17 46 25 SSW 1006,1 50 0 0,0
27.10.2020 21:00:00 9,5 6,7 8,5 7,9 10,0 12,5 31 17 43 23 SSW 1006,0 47 0 0,0
27.10.2020 20:00:00 9,5 6,6 8,5 8,0 10,2 12,5 30 16 45 24 SSW 1005,9 60 0 0,0
27.10.2020 19:00:00 9,7 6,8 8,7 8,5 10,4 12,5 29 16 45 24 SSW 1006,0 41 0 0,0
27.10.2020 18:00:00 10,2 7,0 9,5 9,0 10,5 12,5 25 14 36 19 SSW 1005,9 46 0 0,0
27.10.2020 17:00:00 10,0 7,0 8,9 9,3 10,6 12,5 25 14 37 20 SSW 1005,8 39 24 0,0
27.10.2020 16:00:00 10,9 7,1 10,1 10,6 10,6 12,5 27 15 44 24 SSW 1005,6 42 28 0,0
27.10.2020 15:00:00 11,3 7,5 11,9 11,4 10,4 12,5 31 17 43 23 SSW 1005,6 61 32 0,0
27.10.2020 14:00:00 11,0 7,6 11,2 11,6 10,2 12,5 31 17 39 21 SSW 1005,9 29 38 0,0
27.10.2020 13:00:00 10,4 7,5 10,9 11,0 10,0 12,5 30 16 41 22 SSW 1005,7 34 0 0,0
27.10.2020 12:00:00 9,9 7,1 10,3 10,4 9,8 12,5 32 17 42 23 SSW 1005,6 43 0 0,0
27.10.2020 11:00:00 9,5 7,0 9,9 9,5 9,7 12,5 32 17 40 22 SSW 1005,7 36 0 0,0
27.10.2020 10:00:00 8,9 6,7 9,0 8,7 9,7 12,5 30 16 39 21 SSW 1005,6 53 0 0,0
27.10.2020 09:00:00 8,5 6,5 8,1 8,2 9,7 12,5 29 16 41 22 SW 1005,3 50 0 0,0
27.10.2020 08:00:00 8,4 6,4 7,9 7,8 9,8 12,5 34 19 42 23 SSW 1005,2 48 0 0,0
27.10.2020 07:00:00 8,4 6,5 7,6 7,7 9,9 12,5 34 18 43 23 SSW 1004,8 44 0 0,0
27.10.2020 06:00:00 8,5 6,8 7,6 7,9 10,1 12,5 29 16 39 21 SSW 1004,3 39 0 0,0
27.10.2020 05:00:00 8,5 7,1 7,7 8,0 10,2 12,5 27 14 34 18 SSW 1003,8 31 0 0,0
27.10.2020 04:00:00 8,7 7,3 7,8 8,1 10,4 12,5 25 14 30 16 SSW 1003,4 29 0 0,0
27.10.2020 03:00:00 8,6 7,6 7,8 8,2 10,5 12,5 22 12 27 15 SW 1003,6 23 0 0,0
27.10.2020 02:00:00 8,4 7,4 7,6 8,5 10,7 12,5 20 11 27 15 SW 1003,5 22 0 0,0
27.10.2020 01:00:00 8,7 8,1 8,0 8,8 10,9 12,5 21 11 25 14 SW 1003,4 13 0 0,0
27.10.2020 00:00:00 9,2 8,7 8,5 9,4 11,0 12,5 21 11 26 14 SW 1003,2 11 0 0,0
26.10.2020 23:00:00 10,0 9,5 9,4 10,0 11,1 12,5 22 12 26 14 SSW 1002,8 6 0 0,0
26.10.2020 22:00:00 10,4 9,7 10,2 10,5 11,1 12,5 22 12 30 16 SSW 1003,2 15 0 0,0
26.10.2020 21:00:00 10,7 10,1 10,4 10,6 11,2 12,5 18 10 23 12 SSW 1002,7 9 0 0,1
26.10.2020 20:00:00 10,8 10,1 10,5 10,6 11,2 12,5 17 9 22 12 S 1002,6 8 0 0,3
26.10.2020 19:00:00 10,7 10,3 10,5 10,6 11,2 12,5 15 8 21 11 SSW 1002,9 4,1 0 0,3
26.10.2020 18:00:00 10,7 10,2 10,4 10,6 11,3 12,5 16 9 20 11 SSW 1002,7 7 0 1,0
26.10.2020 17:00:00 10,8 10,2 10,5 10,8 11,3 12,5 16 9 24 13 SSW 1002,8 9 0 0,4
26.10.2020 16:00:00 11,1 10,2 10,8 11,0 11,3 12,5 19 10 24 13 S 1002,9 14 0 0,0
26.10.2020 15:00:00 11,0 10,0 10,8 11,3 11,3 12,5 16 9 21 12 S 1002,3 17 0 0,1
26.10.2020 14:00:00 11,0 10,2 10,9 11,2 11,2 12,5 15 8 24 13 S 1002,5 7 0 1,2
26.10.2020 13:00:00 11,1 10,0 10,7 11,2 11,2 12,5 19 10 25 14 S 1002,8 9 0 0,6
26.10.2020 12:00:00 11,4 10,1 11,0 11,1 11,1 12,5 16 9 21 11 S 1002,8 17 0 0,1
26.10.2020 11:00:00 11,2 9,6 10,9 11,0 11,1 12,5 14 8 22 12 S 1003,1 26 0 0,0
26.10.2020 10:00:00 10,9 9,5 10,7 10,7 11,1 12,5 16 9 21 11 S 1003,2 30 0 0,0
26.10.2020 09:00:00 10,8 9,6 10,5 10,4 11,1 12,5 18 10 24 13 SSW 1002,6 25 0 0,0
26.10.2020 08:00:00 10,6 9,4 10,0 10,1 11,2 12,5 18 10 26 14 SSW 1002,6 26 0 0,0
26.10.2020 07:00:00 10,7 9,5 10,0 10,0 11,3 12,5 20 11 25 14 SSW 1002,5 27 0 0,0
26.10.2020 06:00:00 11,0 9,7 10,0 10,0 11,4 12,5 20 11 26 14 S 1002,4 27 0 0,0
26.10.2020 05:00:00 11,1 10,1 10,2 10,6 11,5 12,5 16 9 23 12 S 1002,1 28 0 0,0
26.10.2020 04:00:00 11,1 10,4 10,7 10,8 11,5 12,5 16 9 21 12 SSW 1002,7 21 0 0,0
26.10.2020 03:00:00 11,1 10,6 10,3 10,7 11,6 12,5 12 6 26 14 SSW 1002,0 16 0 0,0
26.10.2020 02:00:00 11,6 10,5 11,1 11,2 11,6 12,5 18 10 26 14 SSW 1002,8 10 0 0,0
26.10.2020 01:00:00 11,8 10,4 11,2 11,2 11,6 12,5 18 10 25 13 SSW 1003,0 31 0 0,1
26.10.2020 00:00:00 12,3 10,2 11,4 11,2 11,7 12,5 20 11 24 13 S 1002,6 16 0 0,0
25.10.2020 23:00:00 12,6 10,1 12,2 11,3 11,7 12,5 18 10 27 15 S 1003,2 45 0 0,0
25.10.2020 22:00:00 12,8 10,0 12,2 11,4 11,7 12,5 19 10 29 16 SSW 1003,4 54 0 0,0
25.10.2020 21:00:00 12,9 10,1 12,1 11,5 11,8 12,5 22 12 32 17 S 1003,5 49 0 0,0
25.10.2020 20:00:00 13,4 9,9 13,0 11,5 11,8 12,5 23 13 34 18 SSW 1003,5 53 0 0,0
25.10.2020 19:00:00 13,5 10,3 12,9 11,6 11,8 12,5 24 13 34 18 S 1003,7 58 0 0,0
25.10.2020 18:00:00 13,7 10,2 13,2 11,8 11,9 12,5 25 13 33 18 S 1004,1 62 0 0,0
25.10.2020 17:00:00 13,7 10,3 13,2 12,0 11,9 12,5 26 14 42 23 SSW 1004,3 60 0 0,0
25.10.2020 16:00:00 13,7 10,3 13,4 12,3 11,8 12,5 33 18 44 24 S 1003,8 52 0 0,0
25.10.2020 15:00:00 13,9 10,2 13,7 12,6 11,8 12,5 29 16 41 22 S 1004,0 66 0 0,0
25.10.2020 14:00:00 13,6 10,2 13,7 12,8 11,6 12,5 27 15 39 21 S 1004,4 60 0 0,0
25.10.2020 13:00:00 13,6 9,9 13,8 12,5 11,5 12,5 30 16 42 23 S 1005,0 49 0 0,0
25.10.2020 12:00:00 13,1 9,5 13,0 12,3 11,4 12,5 34 19 45 24 S 1005,3 62 0 0,0
25.10.2020 11:00:00 12,9 9,4 13,1 12,4 11,3 12,5 29 16 42 23 S 1005,6 47 16 0,0
25.10.2020 10:00:00 12,8 9,3 13,3 11,6 11,2 12,5 33 18 41 22 S 1005,5 51 33 0,0
25.10.2020 09:00:00 11,9 9,2 11,8 11,0 11,2 12,5 34 18 44 24 S 1006,1 61 34 0,0
25.10.2020 08:00:00 12,2 9,5 12,0 11,0 11,2 12,5 32 18 41 22 S 1006,3 72 0 0,0
25.10.2020 07:00:00 12,5 9,7 12,2 11,0 11,1 12,5 30 16 40 21 S 1006,2 56 0 0,0
25.10.2020 06:00:00 12,5 9,8 12,2 11,0 11,1 12,5 32 17 41 22 S 1006,6 56 0 0,0
25.10.2020 05:00:00 12,6 9,8 12,3 11,0 11,1 12,5 30 16 37 20 S 1006,9 48 0 0,0
25.10.2020 04:00:00 12,8 9,9 12,4 10,9 11,1 12,5 27 15 38 21 SSW 1007,4 59 0 0,0
25.10.2020 03:00:00 12,5 9,8 12,1 10,8 11,1 12,5 26 14 39 21 SSW 1007,9 55 0 0,0
25.10.2020 02:00:00 12,2 10,0 11,9 10,7 11,1 12,5 27 15 36 19 SSW 1008,4 53 0 0,0
25.10.2020 01:00:00 - - - - - - - - - - - - - - -
25.10.2020 00:00:00 11,8 10,5 10,9 10,2 11,1 12,5 24 13 31 17 SSW 1009,0 30 0 0,0
24.10.2020 23:00:00 12,1 10,8 11,2 10,8 11,1 12,5 23 13 32 18 SSW 1009,5 28 0 0,0
24.10.2020 22:00:00 12,2 11,0 11,8 10,7 11,2 12,5 23 13 31 17 SSW 1009,8 26 0 0,0
24.10.2020 21:00:00 11,8 10,1 11,1 10,4 11,2 12,5 19 10 35 19 SSW 1010,1 36 0 0,0
24.10.2020 20:00:00 11,9 9,5 11,5 10,3 11,3 12,5 27 15 33 18 SSW 1010,3 37 0 0,0
24.10.2020 19:00:00 11,0 8,9 10,4 9,9 11,5 12,5 19 11 23 12 SSW 1010,4 34 0 0,0
24.10.2020 18:00:00 10,4 8,9 9,8 10,1 11,7 12,5 16 8 25 14 SW 1010,4 33 0 0,0
24.10.2020 17:00:00 11,0 8,9 9,9 10,7 11,8 12,5 21 12 29 16 WSW 1010,4 36 0 0,0
24.10.2020 16:00:00 11,8 8,3 10,9 11,8 11,8 12,5 24 13 36 20 WSW 1010,2 44 45 0,0
24.10.2020 15:00:00 12,4 7,9 12,8 12,4 11,7 12,5 26 14 44 24 WSW 1010,1 57 0 0,0
24.10.2020 14:00:00 12,6 9,8 12,8 12,6 11,7 12,5 27 14 40 21 WSW 1009,8 29 0 0,0
24.10.2020 13:00:00 12,7 10,2 12,6 13,1 11,5 12,5 26 14 43 23 WSW 1009,7 15 1 0,0
24.10.2020 12:00:00 13,4 10,1 13,9 13,6 11,2 12,5 30 16 45 25 WSW 1009,5 25 4 0,0
24.10.2020 11:00:00 13,3 10,4 13,8 13,0 10,9 12,5 29 16 42 23 WSW 1009,4 20 23 0,0
24.10.2020 10:00:00 13,0 10,5 13,5 12,1 10,7 12,5 31 17 46 25 WSW 1009,1 19 35 0,0
24.10.2020 09:00:00 12,0 10,7 11,4 11,0 10,6 12,5 29 16 41 22 WSW 1008,5 7 0 0,0
24.10.2020 08:00:00 11,8 10,7 11,3 10,5 10,5 12,5 29 15 39 21 SW 1008,2 5 0 0,0
24.10.2020 07:00:00 11,5 10,6 11,0 10,2 10,4 12,5 29 16 40 21 SW 1007,9 4,6 0 0,0
24.10.2020 06:00:00 11,0 10,4 10,6 10,0 10,4 12,5 31 17 40 22 SW 1007,5 3,8 0 0,0
24.10.2020 05:00:00 10,5 10,1 10,2 9,7 10,3 12,5 29 16 41 22 SW 1007,8 2,6 0 0,0
24.10.2020 04:00:00 10,2 9,7 9,9 9,2 10,4 12,5 28 15 39 21 SW 1007,7 3,7 0 0,0
24.10.2020 03:00:00 9,8 9,3 9,5 9,0 10,4 12,5 26 14 33 18 SW 1008,3 6 0 0,0
24.10.2020 02:00:00 9,5 8,8 9,0 8,5 10,5 12,5 24 13 29 16 SSW 1008,6 8 0 0,0
24.10.2020 01:00:00 9,6 9,2 8,9 8,2 10,7 12,5 23 13 29 16 SSW 1008,7 4,9 0 0,0
24.10.2020 00:00:00 9,1 8,7 8,1 8,2 10,9 12,5 22 12 26 14 SW 1009,2 3,8 0 0,0
23.10.2020 23:00:00 8,9 8,3 7,8 8,4 11,2 12,5 20 11 23 13 SW 1009,5 4,8 0 0,0
23.10.2020 22:00:00 9,0 8,3 7,8 8,8 11,4 12,5 18 10 20 11 SW 1009,5 9 0 0,0
23.10.2020 21:00:00 9,1 7,9 7,7 9,4 11,6 12,5 18 10 19 11 SW 1009,3 18 0 0,0
23.10.2020 20:00:00 9,9 8,4 9,0 10,2 11,8 12,4 16 9 19 10 SW 1009,4 23 0 0,0
23.10.2020 19:00:00 10,8 8,8 9,9 10,7 12,0 12,4 14 7 22 12 WSW 1009,5 25 0 0,0
23.10.2020 18:00:00 11,0 8,5 10,4 11,1 12,1 12,4 14 7 26 14 WSW 1009,5 28 0 0,0
23.10.2020 17:00:00 11,1 8,8 10,5 11,6 12,2 12,4 17 9 23 13 WSW 1009,7 28 0 0,0
23.10.2020 16:00:00 11,7 8,7 11,3 12,5 12,2 12,4 19 10 32 17 WSW 1009,4 30 7 0,0
23.10.2020 15:00:00 12,3 9,2 12,4 13,3 12,1 12,4 23 12 43 23 WSW 1009,6 24 10 0,0
23.10.2020 14:00:00 12,7 9,0 13,7 14,3 11,9 12,4 30 16 42 23 WSW 1009,8 25 44 0,0
23.10.2020 13:00:00 12,6 9,4 13,9 13,2 11,7 12,4 32 17 49 26 WSW 1009,8 23 31 0,0
23.10.2020 12:00:00 12,2 9,1 12,3 13,4 11,4 12,4 36 20 49 27 WSW 1010,0 31 41 0,0
23.10.2020 11:00:00 13,2 9,8 14,3 13,2 11,1 12,4 38 20 51 28 WSW 1010,1 39 54 0,0

tt = temperature
td = dewpoint
tt 5cm = temperature 5cm
tt -5cm = temperature -5cm
tt -20cm = temperature -20cm
tt -100cm = temperature -100cm
ff = wind speed
fx = gusts
dd = wind direction
ppp = reduced air pressure
vv = visibility
sd = sunshine duration
rr = precipitation

Next stations